Worthington, MN

1:44 PM CDT on October 20, 2017 (GMT -0500)
Worthington Municipal

Weather History for KOTG - October, 2012

Change the Weather History Date:

Sunday, October 7, 2012

  Actual Average Record
Temperature  
Mean Temperature 36 °F -  
Max Temperature 53 °F 61 °F 85 °F (1993)
Min Temperature 19 °F 40 °F 19 °F (2012)
Degree Days  
Heating Degree Days 29    
Moisture  
Dew Point 17 °F    
Average Humidity 45    
Maximum Humidity 74    
Minimum Humidity 24    
Precipitation  
Precipitation 0.00 in - - ()
Wind  
Wind Speed 9 mph (SW)    
Max Wind Speed 20 mph    
Max Gust Speed 26 mph    
Visibility 10 miles    
Events      
Averages and records for this station are not official NWS values.
T = Trace of Precipitation, MM = Missing Value Source: NWS Daily Summary

Daily Weather History Graph

Daily Weather History Graph

Search for Another Location

Airport or City:

Trip Planner

Search our weather history database for the weather conditions in past years. The results will help you decide how hot, cold, wet, or windy it might be!

Date:

Astronomy

Oct. 07, 2012 Rise Set
Actual Time 7:27 AM CDT 6:51 PM CDT
Civil Twilight 6:58 AM CDT 7:20 PM CDT
Nautical Twilight 6:25 AM CDT 7:53 PM CDT
Astronomical Twilight 5:52 AM CDT 8:26 PM CDT
Moon 11:57 PM CDT (10/7) 2:13 PM CDT (10/7)
Length of Visible Light 12h 21m
Length of Day
11h 24m
Waning Gibbous, 56% of the Moon is Illuminated
Oct 7
Waning Gibbous
Oct 8
Last Quarter
Oct 15
New
Oct 21
First Quarter
Oct 29
Full

Hourly Weather History & Observations

Time (CDT) Temp. Windchill Dew Point Humidity Pressure Visibility Wind Dir Wind Speed Gust Speed Precip Events Conditions
12:15 AM 21.2 °F 16.4 °F 12.2 °F 68% - 10.0 mi West 3.5 mph - N/A   Clear
12:35 AM 21.2 °F 14.9 °F 12.2 °F 68% - 10.0 mi West 4.6 mph - N/A   Clear
12:55 AM 23.0 °F 18.4 °F 14.0 °F 68% - 10.0 mi WSW 3.5 mph - N/A   Clear
1:15 AM 24.8 °F 20.5 °F 14.0 °F 64% - 10.0 mi WSW 3.5 mph - N/A   Clear
1:35 AM 23.0 °F - 12.2 °F 63% - 10.0 mi Calm Calm - N/A   Clear
1:55 AM 21.2 °F 16.4 °F 12.2 °F 68% - 10.0 mi WSW 3.5 mph - N/A   Clear
2:15 AM 21.2 °F - 12.2 °F 68% - 10.0 mi Calm Calm - N/A   Clear
2:35 AM 23.0 °F 18.4 °F 14.0 °F 68% - 10.0 mi SW 3.5 mph - N/A   Clear
2:55 AM 21.2 °F 14.9 °F 12.2 °F 68% - 10.0 mi SW 4.6 mph - N/A   Clear
3:15 AM 21.2 °F 14.9 °F 14.0 °F 74% - 10.0 mi SW 4.6 mph - N/A   Clear
3:35 AM 19.4 °F 12.8 °F 10.4 °F 68% - 10.0 mi WSW 4.6 mph - N/A   Clear
3:55 AM 21.2 °F 13.6 °F 12.2 °F 68% - 10.0 mi SW 5.8 mph - N/A   Clear
4:15 AM 23.0 °F 13.9 °F 15.8 °F 74% - 10.0 mi SW 8.1 mph - N/A   Clear
4:35 AM 24.8 °F 15.3 °F 15.8 °F 69% - 10.0 mi SW 9.2 mph - N/A   Clear
4:55 AM 24.8 °F 16.1 °F 15.8 °F 69% - 10.0 mi WSW 8.1 mph - N/A   Clear
5:15 AM 24.8 °F 16.9 °F 14.0 °F 64% - 10.0 mi SW 6.9 mph - N/A   Clear
5:35 AM 24.8 °F 16.1 °F 15.8 °F 69% - 10.0 mi SW 8.1 mph - N/A   Clear
5:55 AM 24.8 °F 15.3 °F 15.8 °F 69% - 10.0 mi SW 9.2 mph - N/A   Clear
6:15 AM 24.8 °F 16.1 °F 15.8 °F 69% - 10.0 mi SW 8.1 mph - N/A   Clear
6:35 AM 26.6 °F 16.8 °F 15.8 °F 64% - 10.0 mi WSW 10.4 mph - N/A   Clear
6:55 AM 26.6 °F 17.5 °F 15.8 °F 64% - 10.0 mi SW 9.2 mph - N/A   Clear
7:15 AM 26.6 °F 17.5 °F 15.8 °F 64% - 10.0 mi SW 9.2 mph - N/A   Clear
7:35 AM 28.4 °F 19.1 °F 17.6 °F 64% - 10.0 mi SW 10.4 mph - N/A   Clear
7:55 AM 28.4 °F 20.4 °F 17.6 °F 64% - 10.0 mi SW 8.1 mph - N/A   Clear
8:15 AM 28.4 °F 19.7 °F 17.6 °F 64% - 10.0 mi SW 9.2 mph - N/A   Clear
8:35 AM 32.0 °F 22.5 °F 17.6 °F 55% - 10.0 mi SW 12.7 mph - N/A   Clear
8:55 AM 33.8 °F 25.8 °F 17.6 °F 52% - 10.0 mi SW 10.4 mph - N/A   Clear
9:15 AM 33.8 °F 24.3 °F 19.4 °F 56% - 10.0 mi SW 13.8 mph - N/A   Clear
9:55 AM 37.4 °F 31.4 °F 17.6 °F 45% - 10.0 mi SW 8.1 mph - N/A   Clear
10:15 AM 39.2 °F 31.6 °F 19.4 °F 45% - 10.0 mi SW 12.7 mph - N/A   Clear
10:35 AM 42.8 °F 35.8 °F 19.4 °F 39% - 10.0 mi SW 13.8 mph 17.3 mph N/A   Clear
10:55 AM 42.8 °F 36.2 °F 19.4 °F 39% - 10.0 mi SW 12.7 mph 20.7 mph N/A   Clear
11:15 AM 44.6 °F 37.2 °F 19.4 °F 37% - 10.0 mi SW 17.3 mph 21.9 mph N/A   Clear
11:35 AM 46.4 °F 39.2 °F 19.4 °F 34% - 10.0 mi SW 18.4 mph - N/A   Clear
11:55 AM 46.4 °F 40.4 °F 21.2 °F 37% - 10.0 mi SW 13.8 mph 21.9 mph N/A   Clear
12:15 PM 48.2 °F - 21.2 °F 34% - 10.0 mi SW 17.3 mph 23.0 mph N/A   Clear
12:35 PM 50.0 °F - 21.2 °F 32% - 10.0 mi WSW 16.1 mph 24.2 mph N/A   Clear
12:55 PM 50.0 °F - 19.4 °F 30% - 10.0 mi WSW 19.6 mph 24.2 mph N/A   Clear
1:15 PM 51.8 °F - 17.6 °F 26% - 10.0 mi WSW 15.0 mph 21.9 mph N/A   Clear
1:35 PM 51.8 °F - 19.4 °F 28% - 10.0 mi West 18.4 mph 26.5 mph N/A   Clear
1:55 PM 51.8 °F - 19.4 °F 28% - 10.0 mi SW 16.1 mph 20.7 mph N/A   Clear
2:15 PM 51.8 °F - 19.4 °F 28% - 10.0 mi SW 17.3 mph 21.9 mph N/A   Clear
2:35 PM 51.8 °F - 19.4 °F 28% - 10.0 mi SW 19.6 mph 24.2 mph N/A   Clear
2:55 PM 51.8 °F - 17.6 °F 26% - 10.0 mi SW 17.3 mph 25.3 mph N/A   Clear
3:15 PM 53.6 °F - 19.4 °F 26% - 10.0 mi SW 15.0 mph - N/A   Clear
3:35 PM 53.6 °F - 19.4 °F 26% - 10.0 mi SW 15.0 mph 21.9 mph N/A   Clear
3:55 PM 53.6 °F - 19.4 °F 26% - 10.0 mi SW 16.1 mph 21.9 mph N/A   Clear
4:15 PM 53.6 °F - 17.6 °F 24% - 10.0 mi WSW 11.5 mph 18.4 mph N/A   Clear
4:35 PM 53.6 °F - 19.4 °F 26% - 10.0 mi WSW 12.7 mph 26.5 mph N/A   Clear
4:55 PM 53.6 °F - 17.6 °F 24% - 10.0 mi WSW 15.0 mph 19.6 mph N/A   Clear
5:15 PM 53.6 °F - 17.6 °F 24% - 10.0 mi SW 13.8 mph 19.6 mph N/A   Clear
5:35 PM 53.6 °F - 17.6 °F 24% - 10.0 mi SW 16.1 mph 23.0 mph N/A   Clear
5:55 PM 53.6 °F - 17.6 °F 24% - 10.0 mi SW 11.5 mph 18.4 mph N/A   Clear
6:15 PM 53.6 °F - 17.6 °F 24% - 10.0 mi SW 9.2 mph - N/A   Clear
6:35 PM 51.8 °F - 17.6 °F 26% - 10.0 mi SW 11.5 mph - N/A   Clear
6:55 PM 50.0 °F - 17.6 °F 28% - 10.0 mi SSW 8.1 mph - N/A   Clear
7:15 PM 48.2 °F - 17.6 °F 30% - 10.0 mi South 8.1 mph - N/A   Clear
7:55 PM 44.6 °F 40.2 °F 17.6 °F 34% - 10.0 mi South 8.1 mph - N/A   Clear
8:15 PM 44.6 °F 39.2 °F 17.6 °F 34% - 10.0 mi South 10.4 mph - N/A   Clear
8:35 PM 42.8 °F 37.5 °F 17.6 °F 36% - 10.0 mi South 9.2 mph - N/A   Clear
8:55 PM 42.8 °F 37.5 °F 17.6 °F 36% - 10.0 mi SSW 9.2 mph - N/A   Partly Cloudy
9:15 PM 44.6 °F 38.8 °F 15.8 °F 31% - 10.0 mi SSW 11.5 mph - N/A   Scattered Clouds
9:35 PM 44.6 °F 38.8 °F 15.8 °F 31% - 10.0 mi South 11.5 mph - N/A   Scattered Clouds
9:55 PM 42.8 °F 36.2 °F 17.6 °F 36% - 10.0 mi SSW 12.7 mph - N/A   Clear
10:15 PM 42.8 °F 35.4 °F 17.6 °F 36% - 10.0 mi SSW 15.0 mph - N/A   Clear
10:35 PM 42.8 °F 35.1 °F 17.6 °F 36% - 10.0 mi SSW 16.1 mph - N/A   Clear
10:55 PM 42.8 °F 35.4 °F 17.6 °F 36% - 10.0 mi SSW 15.0 mph - N/A   Clear
11:15 PM 42.8 °F 35.8 °F 19.4 °F 39% - 10.0 mi SSW 13.8 mph - N/A   Clear
11:35 PM 42.8 °F 36.2 °F 19.4 °F 39% - 10.0 mi SSW 12.7 mph - N/A   Clear
11:55 PM 42.8 °F 36.2 °F 19.4 °F 39% - 10.0 mi SSW 12.7 mph - N/A   Clear